Terminal Aerodrome Forecast
Issued by NWS Spokane, WA

Home | Current Version | Previous Version | Text Only | Print | Product List | Glossary On
Versions: 1 2 3 4 5 6 7 8 9 10 11 12 13 14 15 16 17 18 19 20 21 22 23 24 25 26 27 28 29 30 31 32
000
FTUS46 KOTX 110857 AAA
TAFGEG
TAF AMD
KGEG 110857Z 1109/1206 18003KT 6SM PRFG FEW005 OVC200
     FM111000 09004KT 1/2SM FG OVC004
     FM111800 07005KT 4SM BR SCT005 OVC015
     FM112000 07006KT P6SM VCSH SCT015 OVC030=

USA.gov is the U.S. government's official web portal to all federal, state and local government web resources and services.